This demonstration page uses our WeatherBlox Daily Observations layout. Learn more.

Left ArrowRight Arrow

Hourly Observations for September 23, 2021

Temp ( °F °C ) Dew Point ( °F °C ) Humidity (%) Winds ( mph kmh ) Pressure ( in mb ) Visibility ( mi km ) Precip ( " mm )
12:53 am 00:53 Clear 55 12.8 44 6.7 67 67 S 3 6 30.12 1020 10 16 N/A
1:53 am 01:53 Clear 53 11.7 43 6.1 69 69 SSE 6 9 30.12 1020 10 16 N/A
2:53 am 02:53 Clear 53 11.7 43 6.1 69 69 S 5 7 30.13 1020 10 16 N/A
3:53 am 03:53 Clear 52 11.1 43 6.1 72 72 SSE 8 13 30.12 1020 10 16 N/A
4:53 am 04:53 Clear 50 10 42 5.6 74 74 S 5 7 30.11 1020 10 16 N/A
5:53 am 05:53 Clear 48 8.9 42 5.6 80 80 SSE 5 7 30.10 1019 10 16 N/A
6:53 am 06:53 Clear 49 9.4 42 5.6 77 77 SSE 3 6 30.10 1019 10 16 N/A
7:53 am 07:53 Sunny 51 10.6 44 6.7 77 77 SSE 7 11 30.11 1020 10 16 N/A
8:53 am 08:53 Sunny 59 15 45 7.2 60 60 SSE 8 13 30.10 1019 10 16 N/A
9:53 am 09:53 Sunny 66 18.9 43 6.1 43 43 S 14 22 30.09 1019 10 16 N/A
10:53 am 10:53 Sunny 71 21.7 44 6.7 38 38 SSW 13 20 30.09 1019 10 16 N/A
11:53 am 11:53 Sunny 76 24.4 43 6.1 31 31 S 18 30 30.06 1018 10 16 N/A
12:53 pm 12:53 Sunny 80 26.7 43 6.1 27 27 S 14 22 30.03 1017 10 16 N/A
1:53 pm 13:53 Sunny 82 27.8 43 6.1 25 25 S 20 31 30.01 1016 10 16 N/A
2:53 pm 14:53 Mostly Sunny 84 28.9 43 6.1 24 24 S 18 30 29.97 1015 10 16 N/A
3:53 pm 15:53 Mostly Sunny 85 29.4 43 6.1 23 23 SSW 15 24 29.95 1014 10 16 N/A
4:53 pm 16:53 Mostly Sunny 84 28.9 42 5.6 23 23 SSW 15 24 29.94 1014 10 16 N/A
5:53 pm 17:53 Mostly Sunny 83 28.3 42 5.6 24 24 S 17 28 29.93 1014 10 16 N/A
6:53 pm 18:53 Sunny 79 26.1 43 6.1 28 28 S 10 17 29.94 1014 10 16 N/A
7:53 pm 19:53 Mostly Clear 73 22.8 44 6.7 35 35 SSE 12 19 29.95 1014 10 16 N/A
8:53 pm 20:53 Clear 69 20.6 44 6.7 41 41 SSE 13 20 29.95 1014 10 16 N/A
9:53 pm 21:53 Clear 67 19.4 45 7.2 45 45 SSE 12 19 29.96 1015 10 16 N/A
10:53 pm 22:53 Clear 65 18.3 45 7.2 49 49 S 10 17 29.96 1015 10 16 N/A
11:53 pm 23:53 Clear 63 17.2 45 7.2 52 52 S 10 17 29.96 1015 10 16 N/A

Powered by AerisWeather